This is the latest recevied weather packets stored in our database for station/object W0JRT-6. If no packets are shown the sender has not sent any weather packets the latest 10 day(s).
| Time | Temp. | Humidity | Pressure | Rain* | Wind** | Luminosity | Snow |
|---|---|---|---|---|---|---|---|
| 1777915203 | 25.56° C | 41% | 996.6 hPa | 0 mm | - | - | - |
| 1777914606 | 25° C | 40% | 996.9 hPa | 0 mm | - | - | - |
| 1777914002 | 25° C | 40% | 996.9 hPa | 0 mm | - | - | - |
| 1777913401 | 25° C | 42% | 996.9 hPa | 0 mm | - | - | - |
| 1777912800 | 24.44° C | 44% | 997 hPa | 0 mm | - | - | - |
| 1777912207 | 24.44° C | 43% | 997 hPa | 0 mm | - | - | - |
| 1777911605 | 24.44° C | 42% | 997.1 hPa | 0 mm | - | - | - |
| 1777911005 | 23.89° C | 44% | 997.1 hPa | 0 mm | - | - | - |
| 1777909801 | 23.33° C | 44% | 997.2 hPa | 0 mm | - | - | - |
| 1777909199 | 23.33° C | 46% | 997.4 hPa | 0 mm | - | - | - |
| 1777908612 | 22.78° C | 50% | 997.5 hPa | 0 mm | - | - | - |
| 1777907399 | 22.22° C | 49% | 997.8 hPa | 0 mm | - | - | - |
| 1777906798 | 21.67° C | 55% | 998 hPa | 0 mm | - | - | - |
| 1777905599 | 20.56° C | 53% | 998.1 hPa | 0 mm | - | - | - |
| 1777905000 | 20.56° C | 53% | 998.3 hPa | 0 mm | - | - | - |
| 1777904400 | 20.56° C | 55% | 998.5 hPa | 0 mm | - | - | - |
| 1777903805 | 20.56° C | 55% | 998.7 hPa | 0 mm | - | - | - |
| 1777903198 | 20° C | 56% | 998.8 hPa | 0 mm | - | - | - |
| 1777902598 | 20° C | 56% | 999.1 hPa | 0 mm | - | - | - |
| 1777902000 | 19.44° C | 56% | 999.2 hPa | 0 mm | - | - | - |
| 1777900811 | 18.89° C | 58% | 999.6 hPa | 0 mm | - | - | - |
| 1777900208 | 18.33° C | 59% | 999.8 hPa | 0 mm | - | - | - |
| 1777899608 | 18.33° C | 60% | 999.9 hPa | 0 mm | - | - | - |
| 1777898403 | 16.67° C | 65% | 1000.4 hPa | 0 mm | - | - | - |
| 1777897808 | 16.11° C | 66% | 1000.5 hPa | 0 mm | - | - | - |
* Rain since midnight (hover to see other rain measurements)
** Current wind speed in m/s (hover to see current wind gust speed)